This demonstration page uses our WeatherBlox Daily Observations layout. Learn more.

Left ArrowRight Arrow

39.92423, -83.80882

Hourly Observations for April 14, 2021

Temp ( °F °C ) Dew Point ( °F °C ) Humidity (%) Winds ( mph kmh ) Pressure ( in mb ) Visibility ( mi km ) Precip ( " mm )
12:56 am 00:56 Clear 50 10 39 3.9 66 66 NW 5 7 30.11 1020 10 16.0934 0 0
1:56 am 01:56 Clear 49 9.4 39 3.9 69 69 NNW 7 11 30.1 1019 10 16.0934 0 0
2:56 am 02:56 Mostly Clear 49 9.4 38 3.3 66 66 NNW 9 15 30.1 1019 10 16.0934 0 0
3:56 am 03:56 Mostly Cloudy 48 8.9 39 3.9 71 71 N 8 13 30.12 1020 10 16.0934 0 0
4:56 am 04:56 Cloudy with Light Rain 47 8.3 37 2.8 69 69 NNE 9 15 30.11 1020 10 16.0934 0 0
5:56 am 05:56 Cloudy 46 7.8 38 3.3 73 73 ENE 8 13 30.11 1020 10 16.0934 0 0
6:56 am 06:56 Cloudy 45 7.2 38 3.3 77 77 NE 5 7 30.15 1021 10 16.0934 0 0
7:56 am 07:56 Partly Cloudy 44 6.7 38 3.3 79 79 ENE 3 6 30.15 1021 10 16.0934 0 0
8:56 am 08:56 Sunny 48 8.9 37 2.8 66 66 E 6 9 30.14 1021 10 16.0934 0 0
9:56 am 09:56 Partly Cloudy 50 10 37 2.8 61 61 ESE 6 9 30.14 1021 10 16.0934 0 0
10:56 am 10:56 Sunny 54 12.2 36 2.2 51 51 SE 5 7 30.13 1020 10 16.0934 0 0
11:56 am 11:56 Sunny 56 13.3 35 1.7 46 46 VRB 3 6 30.11 1020 10 16.0934 0 0
12:56 pm 12:56 Sunny 58 14.4 36 2.2 44 44 W 9 15 30.08 1019 10 16.0934 0 0
1:56 pm 13:56 Mostly Cloudy 59 15 37 2.8 44 44 WSW 10 17 30.05 1018 10 16.0934 0 0
2:56 pm 14:56 Mostly Sunny 60 15.6 38 3.3 44 44 W 14 22 30.02 1017 10 16.0934 0 0
3:56 pm 15:56 Partly Cloudy 61 16.1 40 4.4 46 46 W 10 17 29.98 1015 10 16.0934 0 0
4:56 pm 16:56 Mostly Cloudy 61 16.1 39 3.9 44 44 W 14 22 29.97 1015 10 16.0934 0 0
5:56 pm 17:56 Partly Cloudy 61 16.1 38 3.3 43 43 W 14 22 29.96 1015 10 16.0934 0 0
6:56 pm 18:56 Sunny 59 15 33 0.6 38 38 W 15 24 29.97 1015 10 16.0934 0 0
7:56 pm 19:56 Sunny 56 13.3 34 1.1 44 44 WNW 9 15 29.96 1015 10 16.0934 0 0
8:56 pm 20:56 Clear 52 11.1 34 1.1 50 50 NW 12 19 29.97 1015 10 16.0934 0 0
9:56 pm 21:56 Clear 49 9.4 34 1.1 56 56 NW 9 15 29.99 1016 10 16.0934 0 0
10:56 pm 22:56 Clear 46 7.8 34 1.1 63 63 NNW 6 9 29.99 1016 10 16.0934 0 0
11:56 pm 23:56 Clear 46 7.8 35 1.7 66 66 Calm 29.97 1015 10 16.0934 0 0

Powered by AerisWeather